User: anonymous   Login
Location: Brainerd
(46.3580°N, 94.2010°W)
Time: 00:41:41
(UTC-06:00)
Language:

CZ-4C R/B - Orbit

View from above orbital plane
View from above orbital plane
View from above satellite
View from above satellite

Ground track
Ground track

The orbit data is extracted from the following two-line orbital elements,

1 32290U 07055B   14352.23066895  .00009531  00000-0  34587-3 0   356
2 32290 097.5600 068.4193 0084802 125.0555 296.3025 15.25130886392292
Epoch (UTC): 18 December 2014 05:32:09
Eccentricity: 0.0084802
inclination: 97.5600°
perigee height: 432 km
apogee height: 548 km
right ascension of ascending node: 68.4193°
argument of perigee: 125.0555°
revolutions per day: 15.25130886
mean anomaly at epoch: 296.3025°
orbit number at epoch: 39229

The dashed part of the orbit path shows where the satellite is in the earth's shadow,  

DLR